Naples, FL

9:07 AM EST on January 17, 2018 (GMT -0500)
Naples Municipal

Weather History for KAPF - November, 2013

Change the Weather History Date:

Friday, November 1, 2013

  Actual Average Record
Temperature  
Mean Temperature 76 °F 75 °F  
Max Temperature 84 °F 84 °F 90 °F (1972)
Min Temperature 68 °F 66 °F 47 °F (1993)
Degree Days  
Heating Degree Days 0 0  
Month to date heating degree days 0 0  
Since 1 July heating degree days 0 1  
Cooling Degree Days 11 10  
Month to date cooling degree days 11 10  
Year to date cooling degree days 3652 3605  
Growing Degree Days 26 (Base 50)    
Moisture  
Dew Point 71 °F    
Average Humidity 83    
Maximum Humidity 100    
Minimum Humidity 65    
Precipitation  
Precipitation 0.00 in 0.10 in 0.80 in (1973)
Month to date precipitation 0.00 0.10  
Year to date precipitation 48.22 48.50  
Snow  
Snow 0.00 in - - ()
Month to date snowfall 0.0  
Since 1 July snowfall 0.0  
Since 1 September snowfall 0.0  
Snow Depth 0.00 in    
Sea Level Pressure  
Sea Level Pressure 29.96 in    
Wind  
Wind Speed 4 mph (South)    
Max Wind Speed 16 mph    
Max Gust Speed 20 mph    
Visibility 9 miles    
Events      
T = Trace of Precipitation, MM = Missing Value Source: NWS Daily Summary

Daily Weather History Graph

Daily Weather History Graph

Search for Another Location

Airport or City:

Trip Planner

Search our weather history database for the weather conditions in past years. The results will help you decide how hot, cold, wet, or windy it might be!

Date:

Astronomy

Nov. 01, 2013 Rise Set
Actual Time 7:36 AM EDT 6:44 PM EDT
Civil Twilight 7:12 AM EDT 7:08 PM EDT
Nautical Twilight 6:44 AM EDT 7:36 PM EDT
Astronomical Twilight 6:17 AM EDT 8:03 PM EDT
Moon 5:37 AM EDT (11/1) 5:29 PM EDT (11/1)
Length of Visible Light 11h 56m
Length of Day
11h 08m
Waning Crescent, 4% of the Moon is Illuminated
Nov 1
Waning Crescent
Nov 3
New
Nov 10
First Quarter
Nov 17
Full
Nov 25
Last Quarter

Hourly Weather History & Observations

Time (EDT) Temp. Heat Index Dew Point Humidity Pressure Visibility Wind Dir Wind Speed Gust Speed Precip Events Conditions
12:53 AM 73.0 °F - 70.0 °F 90% 30.01 in 10.0 mi ESE 4.6 mph - N/A   Clear
1:53 AM 73.0 °F - 70.0 °F 90% 29.99 in 10.0 mi ESE 4.6 mph - N/A   Clear
2:53 AM 72.0 °F - 69.1 °F 91% 29.98 in 9.0 mi Calm Calm - N/A   Clear
3:53 AM 71.1 °F - 69.1 °F 93% 29.96 in 8.0 mi Calm Calm - N/A   Clear
4:53 AM 70.0 °F - 69.1 °F 97% 29.97 in 9.0 mi Calm Calm - N/A   Clear
5:53 AM 70.0 °F - 68.0 °F 93% 29.97 in 9.0 mi Calm Calm - N/A   Clear
6:53 AM 69.1 °F - 68.0 °F 96% 29.99 in 8.0 mi Calm Calm - N/A   Partly Cloudy
7:53 AM 69.1 °F - 68.0 °F 96% 29.99 in 7.0 mi Calm Calm - N/A   Partly Cloudy
8:53 AM 75.0 °F - 72.0 °F 90% 30.00 in 7.0 mi Calm Calm - N/A   Clear
9:53 AM 79.0 °F - 73.0 °F 82% 30.00 in 10.0 mi SE 5.8 mph - N/A   Clear
10:53 AM 82.9 °F 88.8 °F 73.0 °F 72% 30.00 in 10.0 mi SSE 9.2 mph - N/A   Scattered Clouds
11:53 AM 82.9 °F 87.5 °F 71.1 °F 67% 29.99 in 10.0 mi SSW 10.4 mph - N/A   Mostly Cloudy
12:04 PM 84.2 °F 89.6 °F 71.6 °F 66% 29.99 in 10.0 mi South 9.2 mph - N/A   Scattered Clouds
12:53 PM 84.0 °F 89.6 °F 72.0 °F 67% 29.96 in 10.0 mi SSW 13.8 mph - N/A   Scattered Clouds
1:53 PM 82.9 °F 88.0 °F 72.0 °F 69% 29.94 in 10.0 mi South 12.7 mph - N/A   Scattered Clouds
2:53 PM 82.9 °F 88.8 °F 73.0 °F 72% 29.92 in 10.0 mi SSW 10.4 mph - N/A   Clear
3:53 PM 84.0 °F 89.0 °F 71.1 °F 65% 29.91 in 10.0 mi SW 9.2 mph - N/A   Clear
4:53 PM 82.9 °F 88.0 °F 72.0 °F 69% 29.91 in 10.0 mi SW 8.1 mph - N/A   Clear
5:53 PM 80.1 °F 84.5 °F 73.9 °F 81% 29.91 in 10.0 mi WSW 5.8 mph - N/A   Clear
6:53 PM 78.1 °F - 73.9 °F 87% 29.91 in 10.0 mi WSW 4.6 mph - N/A   Clear
7:53 PM 77.0 °F - 73.9 °F 90% 29.92 in 10.0 mi Calm Calm - N/A   Clear
8:53 PM 75.9 °F - 73.9 °F 94% 29.93 in 10.0 mi Calm Calm - N/A   Clear
9:53 PM 75.0 °F - 73.0 °F 94% 29.95 in 10.0 mi Calm Calm - N/A   Clear
10:53 PM 73.9 °F - 73.0 °F 97% 29.95 in 10.0 mi Calm Calm - N/A   Clear
11:53 PM 73.0 °F - 72.0 °F 96% 29.94 in 9.0 mi Calm Calm - N/A   Clear